Location: Exeidioux
(45.6312°N, 1.6819°E)
Time: 13:50:17
(UTC+00:00)

SPOT 3 Rocket - Pass Details

Date: 03 March 2021
Orbit: 778 x 795 km, 98.7° (Epoch: 15 April)

Event Time Altitude Azimuth Distance (km) Brightness Sun altitude
Exits shadow 20:18:41 57° 14° (NNE) 932 3.8 -27.6°
Drops below altitude 10° 20:22:57 10° 350° (N) 2,373 6.4 -28.3°
Sets 20:25:17 0° 348° (NNW) 3,308 7.2 -28.7°
